Weather History for KSTP - June, 2013

Change the Weather History Date:

Thursday, June 27, 2013

  Actual Average Record
Temperature  
Mean Temperature 78 °F -  
Max Temperature 86 °F 78 °F 93 °F (2012)
Min Temperature 70 °F 59 °F 55 °F (2000)
Cooling Degree Days 13    
Growing Degree Days 28 (Base 50)    
Moisture  
Dew Point 60 °F    
Average Humidity 55    
Maximum Humidity 84    
Minimum Humidity 33    
Precipitation  
Precipitation 0.00 in - - ()
Sea Level Pressure  
Sea Level Pressure 29.78 in    
Wind  
Wind Speed 8 mph (WNW)    
Max Wind Speed 24 mph    
Max Gust Speed 34 mph    
Visibility 10 miles    
Events      
Averages and records for this station are not official NWS values.
T = Trace of Precipitation, MM = Missing Value Source: NWS Daily Summary

Daily Weather History Graph

Daily Weather History Graph

Search for Another Location

Airport or City:

Trip Planner

Search our weather history database for the weather conditions in past years. The results will help you decide how hot, cold, wet, or windy it might be!

Date:

Astronomy

Jun. 27, 2013 Rise Set
Actual Time 5:27 AM CDT 9:02 PM CDT
Civil Twilight 4:50 AM CDT 9:40 PM CDT
Nautical Twilight 4:01 AM CDT 10:29 PM CDT
Astronomical Twilight 2:55 AM CDT 11:34 PM CDT
Moon 11:44 PM CDT (6/27) 10:43 AM CDT (6/27)
Length of Visible Light 16h 49m
Length of Day
15h 35m
Waning Gibbous, 76% of the Moon is Illuminated
Jun 27
Waning Gibbous
Jun 29
Last Quarter
Jul 8
New
Jul 15
First Quarter
Jul 22
Full

Hourly Weather History & Observations

Time (CDT) Temp. Heat Index Dew Point Humidity Pressure Visibility Wind Dir Wind Speed Gust Speed Precip Events Conditions
12:53 AM 73.0 °F - 63.0 °F 71% 29.80 in 10.0 mi WNW 3.5 mph - N/A   Clear
1:53 AM 73.0 °F - 64.9 °F 76% 29.79 in 10.0 mi Calm Calm - N/A   Clear
2:53 AM 70.0 °F - 64.9 °F 84% 29.78 in 10.0 mi East 3.5 mph - N/A   Scattered Clouds
3:53 AM 71.1 °F - 64.9 °F 81% 29.78 in 10.0 mi Calm Calm - N/A   Mostly Cloudy
4:53 AM 70.0 °F - 64.9 °F 84% 29.79 in 10.0 mi Calm Calm - N/A   Overcast
5:53 AM 70.0 °F - 64.9 °F 84% 29.79 in 10.0 mi Calm Calm - N/A   Clear
6:53 AM 73.9 °F - 64.9 °F 73% 29.79 in 10.0 mi WSW 5.8 mph - N/A   Partly Cloudy
7:53 AM 75.9 °F - 64.9 °F 69% 29.79 in 10.0 mi West 8.1 mph - N/A   Clear
8:53 AM 78.1 °F - 64.0 °F 62% 29.78 in 10.0 mi WNW 11.5 mph - N/A   Clear
9:53 AM 80.1 °F 81.7 °F 64.0 °F 58% 29.78 in 10.0 mi WNW 12.7 mph - N/A   Clear
10:53 AM 82.9 °F 83.7 °F 62.1 °F 49% 29.78 in 10.0 mi NW 16.1 mph 20.7 mph N/A   Clear
11:53 AM 84.0 °F 83.8 °F 59.0 °F 43% 29.78 in 10.0 mi WNW 16.1 mph 24.2 mph N/A   Clear
12:53 PM 84.0 °F 83.5 °F 57.9 °F 41% 29.78 in 10.0 mi WNW 20.7 mph 28.8 mph N/A   Clear
1:53 PM 86.0 °F 84.5 °F 55.0 °F 35% 29.78 in 10.0 mi NW 19.6 mph 29.9 mph N/A   Clear
2:53 PM 86.0 °F 84.2 °F 54.0 °F 33% 29.78 in 10.0 mi WNW 21.9 mph 34.5 mph N/A   Clear
3:53 PM 86.0 °F 84.2 °F 54.0 °F 33% 29.77 in 10.0 mi WNW 18.4 mph 27.6 mph N/A   Clear
4:53 PM 84.9 °F 83.3 °F 54.0 °F 34% 29.78 in 10.0 mi West 24.2 mph 29.9 mph N/A   Clear
5:53 PM 84.9 °F 83.6 °F 55.0 °F 36% 29.77 in 10.0 mi WNW 18.4 mph 28.8 mph N/A   Clear
6:53 PM 84.0 °F 83.0 °F 55.9 °F 38% 29.77 in 10.0 mi WNW 13.8 mph 20.7 mph N/A   Partly Cloudy
7:53 PM 82.0 °F 81.3 °F 54.0 °F 38% 29.77 in 10.0 mi WNW 13.8 mph - N/A   Clear
8:53 PM 79.0 °F - 55.9 °F 45% 29.77 in 10.0 mi WNW 10.4 mph - N/A   Clear
9:53 PM 78.1 °F - 55.9 °F 46% 29.76 in 10.0 mi West 4.6 mph - N/A   Clear
10:53 PM 77.0 °F - 57.0 °F 50% 29.76 in 10.0 mi West 9.2 mph - N/A   Clear
11:53 PM 77.0 °F - 55.9 °F 48% 29.76 in 10.0 mi NW 11.5 mph - N/A   Clear